STARLINK-35923, 66641

Orbit data source: Space-Track

STARLINK-35923, 66641 is a payload satellite owned by SpaceX/Seattle (US) in LEO that was launched on Sun, 23 Nov 2025 UTC via an FALCON 9 launch vehicle from the Air Force Western Test Range (AFWTR). Payload-class satellites include a variety of spacecraft equipped with specific instruments for various scientific and technological missions. These include communications satellites like Starlink; space stations such as the ISS; scientific satellites like the Hubble; Earth observation satellites from companies like Planet Labs, Umbra, and HawkEye 360; GPS; miniature CubeSats for education and research; and military/defense satellites.

Loading next visibility...
Identifier
66641, 2025-271AA
Orbit
LEO
Country
Flag of USUS
Related business
Manufacturer
SpaceX/Seattle
Mission
Operational Commercial Communications
Bus & Motor
STARLINK V2MO, Unknown motor
Mass
575 kg wet, ~530 kg dry
Launch date (UTC)
2025-11-23 (5 months ago)
Launch vehicle
FALCON 9
Launch site
Air Force Western Test Range (AFWTR)
Object type
Payload
Rocket body
Debris
Shape & HBR
Box + 2 Pan, 17.7 m
Radar Cross Section
36.964 m²

Expand to show TLE details & history
Last TLE update: 1 day ago

TLE from 1 day ago
0 STARLINK-35923
1 66641U 25271AA  26127.55063992  .00017666  00000-0  60691-3 0  9998
2 66641  53.1574 226.8730 0000999  89.3764 270.7351 15.30214478 26572
Epoch: 2026-05-07T13:12Z
TLE epoch observation values (Epoch: 2026-05-07T13:12:55.289Z)
Latitude
-0.00002°
Longitude
163.24745°
Altitude
476.063 km
Speed
7.629 km/s
True Right ascension
15h 07m 29s
True Declination
0° 00' 00"
Sunlit
Object was in full shadow at epoch
Visualization orbit readout
Latitude
Unknown
Longitude
Unknown
Altitude
Unknown
Speed
Unknown
Apparent Right ascension
Unknown
Apparent Declination
Unknown
Sunlit
N/A
Visualization observer readout
Local Sidereal Time
22:42:41
Azimuth
Unknown
Elevation
Unknown
Doppler factor
Unknown
Orbital elements
Apogee altitude
476.113 km
Perigee altitude
474.744 km
Semi-major axis
6,853.566 km
Eccentricity
0.0001
Inclination
53.1574°
RAAN
226.873°
Arg. of periapsis
89.3764°
True anomaly
270.72365°
Mean anomaly
270.7351°
Eccentric anomaly
270.72938°
Mean motion
3.82532 °/min
Orbital period
94.11 mins
BSTAR
0.00060691
Loading maneuver chart data...
Computing Atmospheric mass density...
Loading historical data...
Loading historical data...
Loading historical data...
Loading historical data...
Loading historical data...
Loading historical data...
Loading historical data...

Documentation

Showing up to 5 results
|